Tracking 25701 objects as of 3-Jul-2022
HD Live streaming from Space Station
objects crossing your sky now

CZ-2C DEB

Track CZ-2C DEB now!
10-day predictions


NORAD ID: 40266
Int'l Code: 2014-059F
Perigee: 691.0 km
Apogee: 959.5 km
Inclination: 98.3 °
Period: 101.3 minutes
Semi major axis: 7196 km
RCS: Unknown
Launch date: September 28, 2014
Source: People's Republic of China (PRC)
Launch site: Jiuquan Satellite Launch Center, China (JSC)

Note: This is SATELLITE DEBRIS
aabbcc
Your satellite tracking list
Your tracking list is empty




NASA's NSSDC Master Catalog

Two Line Element Set (TLE):
1 40266U 14059F   22184.40476559  .00000547  00000-0  22259-3 0  9993
2 40266  98.3069 135.6120 0186548 160.7679 200.0666 14.22144840402535
Source of the keplerian elements: AFSPC